Location: Basse Occidentale du Courleau
(48.3833°N, 4.8333°W)
Time: 09:57:48
(UTC+00:00)

Cosmos 2084 - Pass Details

Date: 05 July 2020
Orbit: 571 x 612 km, 62.8° (Epoch: 07 August)

Event Time Altitude Azimuth Distance (km) Brightness Sun altitude
Rises 21:37:31 0° 319° (NW) 2,884 9.4 -9.8°
Reaches altitude 10° 21:39:50 10° 323° (NW) 1,976 7.8 -10.0°
Maximum altitude 21:44:16 61° 44° (NE) 694 3.8 -10.5°
Enters shadow 21:48:04 14° 124° (ESE) 1,729 5.3 -10.8°
